FW1490 Weather Reports


time (UTC)temp
C
wind
direction
speed
KPH
gust
KPH
rain 1hr
cm
rain 24hr
cm
rain mn
cm
humidity
%
barometer
mb
20260504234604 25 116 12.9 22.5 0.00 0.00 0.00 23 994.6
20260504233047 26 109 14.5 25.7 0.00 0.00 0.00 20 994.8
20260504231542 26 103 12.9 22.5 0.00 0.00 0.00 20 995.0
20260504230016 26 86 14.5 25.7 0.00 0.00 0.00 21 995.1
20260504224508 26 69 11.3 29.0 0.00 0.00 0.00 22 995.3
20260504223006 26 106 9.7 16.1 0.00 0.00 0.00 18 995.4
20260504221507 26 53 4.8 20.9 0.00 0.00 0.00 18 995.4
20260504221505 26 65 4.8 20.9 0.00 0.00 0.00 18 995.4
20260504220004 26 42 4.8 12.9 0.00 0.00 0.00 19 995.5
20260504214504 26 112 14.5 29.0 0.00 0.00 0.00 20 995.4
20260504213141 26 116 14.5 27.4 0.00 0.00 0.00 21 995.6
20260504211606 27 118 9.7 20.9 0.00 0.00 0.00 17 995.8
20260504210057 28 311 1.6 8.0 0.00 0.00 0.00 14 995.9
20260504204557 28 312 0.0 6.4 0.00 0.00 0.00 15 996.0
20260504203024 27 266 0.0 16.1 0.00 0.00 0.00 14 996.1
20260504201526 27 290 3.2 12.9 0.00 0.00 0.00 16 996.3
20260504200018 27 205 12.9 27.4 0.00 0.00 0.00 16 996.6
20260504194519 27 201 8.0 16.1 0.00 0.00 0.00 16 996.7
20260504193016 27 230 0.0 6.4 0.00 0.00 0.00 16 996.7
20260504191518 27 281 3.2 6.4 0.00 0.00 0.00 16 996.9
20260504190010 27 261 4.8 14.5 0.00 0.00 0.00 16 997.1
20260504184514 27 261 9.7 25.7 0.00 0.00 0.00 15 997.2
20260504183008 28 278 8.0 20.9 0.00 0.00 0.00 15 997.4
20260504181505 28 345 6.4 14.5 0.00 0.00 0.00 15 997.6
20260504180001 27 202 3.2 9.7 0.00 0.00 0.00 15 997.9
20260504174617 27 212 12.9 22.5 0.00 0.00 0.00 15 998.1
20260504173059 27 331 1.6 16.1 0.00 0.00 0.00 16 998.2
20260504171555 27 221 9.7 22.5 0.00 0.00 0.00 17 998.5
20260504100105 8 218 4.8 8.0 0.00 0.00 0.00 65 999.5
20260504100103 8 224 4.8 8.0 0.00 0.00 0.00 65 999.5
20260504090106 8 302 8.0 14.5 0.00 0.00 0.00 66 999.9
20260504081506 8 318 6.4 14.5 0.00 0.00 0.00 63 1000.4
20260504044559 14 33 8.0 17.7 0.00 0.00 0.00 47 1001.4
20260504043047 15 53 9.7 19.3 0.00 0.00 0.00 46 1001.5
20260504041545 15 53 4.8 9.7 0.00 0.00 0.00 44 1001.7
20260504040046 16 30 8.0 16.1 0.00 0.00 0.00 42 1001.9
20260504034552 16 45 6.4 16.1 0.00 0.00 0.00 40 1001.9
20260504033053 18 63 6.4 16.1 0.00 0.00 0.00 36 1002.0
20260504031525 19 41 8.0 22.5 0.00 0.00 0.00 34 1001.9
20260504030024 19 78 8.0 19.3 0.00 0.00 0.00 31 1001.9
20260504024523 19 58 4.8 9.7 0.00 0.00 0.00 28 1001.7
20260504023020 20 52 3.2 8.0 0.00 0.00 0.00 25 1001.7
20260504021525 21 53 8.0 11.3 0.00 0.00 0.00 24 1001.7
20260504020019 21 38 6.4 12.9 0.00 0.00 0.00 22 1001.6
20260504014550 22 17 4.8 12.9 0.00 0.00 0.00 22 1001.6
20260504013050 23 23 6.4 14.5 0.00 0.00 0.00 21 1001.6
20260504011545 24 15 4.8 12.9 0.00 0.00 0.00 20 1001.7
20260504010053 25 17 8.0 16.1 0.00 0.00 0.00 17 1001.7
20260504004542 26 355 8.0 22.5 0.00 0.00 0.00 17 1001.8
20260504003039 27 18 8.0 19.3 0.00 0.00 0.00 16 1001.8
20260504001508 26 355 9.7 19.3 0.00 0.00 0.00 16 1002.0
20260504000007 26 349 16.1 27.4 0.00 0.00 0.00 15 1002.0